Historyczne dane pomiarowe

Dodano dane terminowe – wersja testowa.

Dane z okresu 1951-2019

Wersja bazy: 1.34 [2019-03-16, lista zmian], aktualizacja planowana na 2019-04-15

Dane meteo z obszaru Polski uzyskane na podstawie danych udostępnionych przez Instytut Meteorologii i Gospodarki Wodnej – Państwowy Instytut Badawczy.

 

Wybierz Datę:    

       

TemperaturaWilgotnośćWiatrCiśnienieOpadyŚniegCzas trwania zjawisk
 Stacja t tx tn tng RH VA  wxwx mslp ppp RRR   cm mm wxwxwxwxwxwxwx
2019-09-30 14.7 18.1 11.1 10.9 74.0 12.3- 3.0--1002.0 967.5 5.4 5.4 0.0x- 1.4-------
2019-09-29 14.4 18.4 10.3 8.6 74.6 12.0- 2.5--1010.2 975.4 0.0 0.0 0.0x- 6.8-------
2019-09-28 14.8 17.7 13.1 11.2 84.4 14.1- 1.6--1014.4 979.4 0.4 0.4 0.0x- 2.8-------
2019-09-27 14.3 20.3 7.9 7.6 83.4 13.5- 2.1--1014.7 979.7 1.6 0.0 1.6x- 6.1-------
2019-09-26 13.7 17.9 11.5 11.3 87.5------- 1.7 1.7 0.0x---------
2019-09-25 12.4 15.4 8.8 7.3 92.5 13.4- 1.4--1009.2 974.1 0.0 0.0 0.0x- 0.0-------
2019-09-24 11.6 17.5 9.0 9.5 82.9 11.2- 2.0--1015.4 980.0 0.0 0.0 0.0x- 6.0-------
2019-09-23 14.3 21.0 7.2 4.8 67.8 10.5- 2.0--1015.6 980.5 0.0 0.0 0.0x- 11.0-------
2019-09-22 13.6 21.1 6.8 5.3 63.5 9.4- 2.0--1018.5 983.2 0.0 0.0 0.0x- 11.4-------
2019-09-21 11.2 17.7 5.9 4.9 70.3 9.1- 1.6--1024.9 989.1 0.0 0.0 0.0x- 10.0-------
2019-09-20 8.8 14.2 3.8 2.7 80.4 8.9- 1.8--1027.2 991.1 0.0 0.0 0.0x- 5.7-------
2019-09-19 7.4 12.5 4.3 3.3 85.8 8.8- 1.5--1025.0 988.8 0.4 0.4 0.0x- 4.7-------
2019-09-18 9.6 14.0 6.4 5.9 69.4 8.1- 2.8--1018.5 982.8 0.0 0.0 0.0x- 5.3-------
2019-09-17 11.4 14.9 9.0 8.3 77.1 10.2- 1.9--1013.5 978.2 0.1 0.0 0.1x- 1.8-------
2019-09-16 14.2 17.5 13.2 11.2 73.5 11.8- 1.5--1016.9 981.8 0.0 0.0 0.0x- 0.2-------
2019-09-15 13.9 21.7 5.7 4.6 69.6 10.7- 1.9--1023.4 988.0 0.0 0.0 0.0x- 10.6-------
2019-09-14 12.7 17.9 8.4 5.8 71.6 10.2- 2.0--1032.4 996.6 0.0 0.0 0.0x- 9.0-------
2019-09-13 16.7 22.4 11.7 10.1 77.4 14.4- 1.6--1028.5 993.2 0.0 0.0 0.0x- 6.2-------
2019-09-12 16.6 23.0 10.7 8.8 70.0 12.7- 1.5--1027.8 992.6 0.0 0.0 0.0x- 11.4-------
2019-09-11 16.0 22.5 9.4 8.3 70.3 12.3- 1.4--1024.2 989.1 0.0 0.0 0.0x- 10.4-------
2019-09-10 14.3 19.5 10.9 10.2 74.9 11.9- 2.6--1017.9 982.8 0.0 0.0 0.0x- 6.8-------
2019-09-09 14.7 19.4 13.4 13.1 93.0 15.5- 2.5--1012.4 977.5 3.2 3.2 0.0x- 0.4-------
2019-09-08 14.2 16.7 12.2 12.3 89.9 14.5- 1.9--1018.0 982.8 7.0 2.7 4.3x- 0.4-------
2019-09-07 16.2 22.2 13.0 12.8 71.5 13.0- 1.8--1018.2 983.3 12.5 3.5 9.0x- 4.8-------
2019-09-06 15.6 20.1 12.7 12.4 60.1 10.5- 2.6--1023.0 987.9 0.0 0.0 0.0x- 5.2-------
2019-09-05 18.1 25.2 11.0 9.4 62.3 12.4- 2.4--1015.1 980.5 0.0 0.0 0.0x- 10.7-------
2019-09-04 17.2 22.9 12.3 11.2 58.3 11.0- 1.5--1019.7 984.9 0.0 0.0 0.0x- 10.2-------
2019-09-03 14.9 19.8 11.5 11.4 72.9 11.9- 1.3--1023.2 988.0 0.0 0.0 0.0x- 6.7-------
2019-09-02 16.2 25.9 12.5 12.1 88.6 16.3- 3.4--1017.6 982.7 9.5 6.7 2.8x- 0.0-------
2019-09-01 24.7 31.5 18.5 16.4 56.4 16.4- 1.9--1012.2 978.5 0.0 0.0 0.0x- 11.1-------
2019-08-31 23.3 29.3 17.3 15.2 66.1 18.1- 2.1--1019.6 985.5 0.0 0.0 0.0x- 11.6-------
2019-08-30 21.8 29.3 18.5 17.3 72.5 18.5- 1.8--1021.8 987.5 2.1 2.1 0.0x- 5.6-------
2019-08-29 25.1 31.9 18.5 16.7 57.3 17.3- 1.4--1017.6 983.8 0.0 0.0 0.0x- 11.2-------
2019-08-28 24.2 30.8 18.4 17.0 62.0 17.9- 2.1--1018.4 984.4 0.0 0.0 0.0x---------
2019-08-27 23.0 30.4 17.2 15.8 68.1 18.7- 1.4--1020.5 986.3 0.0 0.0 0.0x- 7.2-------
2019-08-26 23.8 30.7 17.4 16.7 61.5 17.3- 1.8--1021.2 987.1 0.0 0.0 0.0x- 11.3-------
2019-08-25 21.7 28.1 15.0 14.0 60.6 15.4- 2.4--1022.6 988.2 0.0 0.0 0.0x- 11.4-------
2019-08-24 20.7 26.2 14.9 14.3 64.5 15.3- 2.5--1024.8 990.2 0.0 0.0 0.0x- 11.6-------
2019-08-23 20.1 24.6 15.5 14.9 62.9 14.6- 2.0--1026.9 992.1 0.0 0.0 0.0x- 9.5-------
2019-08-22 17.6 21.6 13.0 12.1 72.9 14.3- 2.0--1028.6 993.5 0.0 0.0 0.0x- 6.1-------
2019-08-21 16.7 21.7 14.3 14.4 86.1 16.4- 3.0--1025.0 989.9 0.3 0.3 0.0x- 0.9-------
2019-08-20 20.4 24.2 17.1 16.9 79.5 18.8- 2.4--1020.9 986.4 10.0 0.0 10.0x- 2.5-------
2019-08-19 23.0 27.5 18.1 16.2 63.9 17.6- 1.9--1015.5 981.5 0.1 0.0 0.1x- 6.5-------
2019-08-18 21.6 27.8 14.3 12.7 61.6 15.5- 2.4--1011.7 977.7 0.0 0.0 0.0x- 11.0-------
2019-08-17 18.1 23.7 11.3 11.0 68.9 13.6- 1.4--1015.8 981.2 0.0 0.0 0.0x- 9.0-------
2019-08-16 16.2 22.9 13.5 12.4 77.4 14.1- 1.1--1016.0 981.1 0.5 0.5 0.0x- 2.8-------
2019-08-15 16.9 23.1 10.6 8.7 60.8 10.9- 1.1--1016.3 981.6 0.4 0.0 0.4x- 9.2-------
2019-08-14 16.5 20.8 13.6 13.5 69.1 12.6- 1.9--1016.7 981.9 0.6 0.6 0.0x- 3.3-------
2019-08-13 18.9 23.8 15.3 15.2 74.6 15.8- 1.6--1015.5 981.0 4.0 0.0 4.0x- 7.2-------
2019-08-12 22.0 28.3 17.6 15.5 67.6 17.4- 1.9--1013.9 979.8 24.0 0.0 24.0x- 4.7-------
2019-08-11 21.5 27.1 15.7 14.7 62.1 15.0- 1.4--1017.3 983.1 0.0 0.0 0.0x- 12.1-------
2019-08-10 22.2 29.8 16.9 15.2 67.4 17.6- 2.0--1013.7 979.7 11.0 1.4 9.6x- 3.9-------
2019-08-09 21.6 27.9 14.7 13.6 56.3 13.7- 1.6--1013.4 979.3 0.0 0.0 0.0x- 10.1-------
2019-08-08 20.5 25.8 16.4 16.1 68.3 15.7- 1.8--1010.7 976.6 0.0 0.0 0.0x- 8.1-------
2019-08-07 20.2 26.2 16.7 15.8 81.9 19.0- 1.1--1008.5 974.4 29.6 13.7 15.9x- 4.7-------
2019-08-06 22.4 28.9 16.4 15.5 59.6 15.3- 1.3--1010.9 977.0 1.8 0.0 1.8x- 9.6-------
2019-08-05 19.9 27.4 13.1 11.7 60.1 13.2- 1.5--1013.1 978.8 0.0 0.0 0.0x- 9.5-------
2019-08-04 18.2 24.8 10.8 8.9 58.3 11.8- 2.3--1014.2 979.7 0.4 0.1 0.3x- 8.0-------
2019-08-03 18.4 23.5 14.1 11.8 56.5 11.4- 2.4--1011.8 977.4 0.0 0.0 0.0x- 7.2-------
2019-08-02 19.0 23.9 14.1 12.7 65.0 13.7- 2.3--1013.6 979.2 0.0 0.0 0.0x- 8.7-------
95.0 ms

 

Źródłem pochodzenia danych jest Instytut Meteorologii i Gospodarki Wodnej – Państwowy Instytut Badawczy. Dane Instytutu Meteorologii i Gospodarki Wodnej – Państwowego Instytutu Badawczego zostały przetworzone.

Dane źródłowe można odnaleźć na stronie https://dane.imgw.pl